Orbital Elements at Epoch 2459000.5 (2020-May-31.0) TDB
Reference: JPL 19 (heliocentric ecliptic J2000)
Element | Value | Uncertainty (1-sigma) | Units |
e | .07776966389037966 | 5.2449e-08 | |
a | 2.418849459076173 | 1.7181e-08 | au |
q | 2.230736349642392 | 1.2592e-07 | au |
i | 4.520327291781939 | 5.7727e-06 | deg |
node | 316.7475511229736 | 6.3396e-05 | deg |
peri | 212.1371081340932 | 7.0974e-05 | deg |
M | 330.0155953156691 | 3.3634e-05 | deg |
tp | 2459114.947053786572 (2020-Sep-22.44705379) | 0.00012883 | TDB |
period | 1374.078951939194 3.76 | 1.464e-05 4.008e-08 | d yr |
n | .2619936791055152 | 2.7914e-09 | deg/d |
Q | 2.606962568509954 | 1.8517e-08 | au |
|
| | Orbit Determination Parameters
Additional Information
|